Time,TemperatureF,DewpointF,PressureIn,WindDirection,WindDirectionDegrees,WindSpeedMPH,WindSpeedGustMPH,Humidity,HourlyPrecipIn,Conditions,Clouds,dailyrainin,SoftwareType,DateUTC
2013-02-16 00:00:00,25.8,20.5,29.98,SSE,162,0.0,0.0,80,0.00,,,0.00,Wunderground v.1.13,2013-02-16 05:00:00,
2013-02-16 00:01:00,25.9,20.6,29.98,SSE,161,0.0,0.0,80,0.00,,,0.00,Wunderground v.1.13,2013-02-16 05:01:00,
2013-02-16 00:02:00,25.9,20.9,29.98,SSE,162,0.0,0.0,81,0.00,,,0.00,Wunderground v.1.13,2013-02-16 05:02:00,
2013-02-16 00:07:00,26.1,21.1,29.99,SSE,161,0.0,0.0,81,0.00,,,0.00,Wunderground v.1.13,2013-02-16 05:07:00,
2013-02-16 00:12:00,26.2,21.2,29.98,SSE,161,0.0,0.0,81,0.00,,,0.00,Wunderground v.1.13,2013-02-16 05:12:00,
2013-02-16 00:18:00,26.2,21.2,29.99,SSE,162,0.0,0.0,81,0.00,,,0.00,Wunderground v.1.13,2013-02-16 05:18:00,
2013-02-16 00:24:00,26.5,21.5,29.98,SSE,162,0.0,0.0,81,0.00,,,0.00,Wunderground v.1.13,2013-02-16 05:24:00,
2013-02-16 00:26:00,26.6,21.8,29.98,SSE,162,0.0,0.0,82,0.00,,,0.00,Wunderground v.1.13,2013-02-16 05:26:00,
2013-02-16 00:31:00,27.1,22.0,29.99,SSE,161,0.0,0.0,81,0.00,,,0.00,Wunderground v.1.13,2013-02-16 05:31:00,
2013-02-16 00:37:00,27.3,21.9,29.99,SSE,162,0.0,0.0,80,0.00,,,0.00,Wunderground v.1.13,2013-02-16 05:37:00,
2013-02-16 00:43:00,27.4,22.0,29.99,SSE,161,0.0,0.0,80,0.00,,,0.00,Wunderground v.1.13,2013-02-16 05:43:00,
2013-02-16 00:49:00,27.3,21.9,30.00,SSE,161,0.0,2.0,80,0.00,,,0.00,Wunderground v.1.13,2013-02-16 05:49:00,
2013-02-16 00:55:00,27.4,22.0,29.99,SSE,161,0.0,0.0,80,0.00,,,0.00,Wunderground v.1.13,2013-02-16 05:55:00,
2013-02-16 01:01:00,27.5,22.4,30.00,SSE,161,0.0,0.0,81,0.00,,,0.00,Wunderground v.1.13,2013-02-16 06:01:00,
2013-02-16 01:07:00,27.6,22.5,30.00,SSE,161,0.0,1.0,81,0.00,,,0.00,Wunderground v.1.13,2013-02-16 06:07:00,
2013-02-16 01:12:00,27.7,22.0,30.00,SSE,161,0.0,0.0,79,0.00,,,0.00,Wunderground v.1.13,2013-02-16 06:12:00,
2013-02-16 01:17:00,27.7,21.7,30.00,SSE,162,0.0,0.0,78,0.00,,,0.00,Wunderground v.1.13,2013-02-16 06:17:00,
2013-02-16 01:22:00,27.8,21.8,30.00,SSE,161,0.0,0.0,78,0.00,,,0.00,Wunderground v.1.13,2013-02-16 06:22:00,
2013-02-16 01:27:00,27.9,21.6,30.00,SSE,162,0.0,0.0,77,0.00,,,0.00,Wunderground v.1.13,2013-02-16 06:27:00,
2013-02-16 01:33:00,28.4,21.8,30.00,SSE,162,0.0,0.0,76,0.00,,,0.00,Wunderground v.1.13,2013-02-16 06:33:00,
2013-02-16 01:38:00,28.7,22.1,30.00,SSE,161,0.0,0.0,76,0.00,,,0.00,Wunderground v.1.13,2013-02-16 06:38:00,
2013-02-16 01:43:00,28.9,22.3,30.00,SSE,162,0.0,0.0,76,0.00,,,0.00,Wunderground v.1.13,2013-02-16 06:43:00,
2013-02-16 01:49:00,29.0,22.4,30.00,SSE,162,0.0,0.0,76,0.00,,,0.00,Wunderground v.1.13,2013-02-16 06:49:00,
2013-02-16 01:55:00,29.1,22.5,30.01,SSE,162,0.0,0.0,76,0.00,,,0.00,Wunderground v.1.13,2013-02-16 06:55:00,
2013-02-16 02:00:00,29.2,22.6,30.00,SSE,161,0.0,0.0,76,0.00,,,0.00,Wunderground v.1.13,2013-02-16 07:00:00,
2013-02-16 02:06:00,29.2,22.6,29.99,SSE,162,0.0,0.0,76,0.00,,,0.00,Wunderground v.1.13,2013-02-16 07:06:00,
2013-02-16 02:11:00,29.1,22.5,29.99,SSE,161,0.0,0.0,76,0.00,,,0.00,Wunderground v.1.13,2013-02-16 07:11:00,
2013-02-16 02:16:00,29.0,23.0,29.99,SSE,161,0.0,0.0,78,0.00,,,0.00,Wunderground v.1.13,2013-02-16 07:16:00,
2013-02-16 02:22:00,28.8,23.4,29.99,SSE,162,0.0,0.0,80,0.00,,,0.00,Wunderground v.1.13,2013-02-16 07:22:00,
2013-02-16 02:27:00,28.8,23.1,29.99,SSE,162,0.0,0.0,79,0.00,,,0.00,Wunderground v.1.13,2013-02-16 07:27:00,
2013-02-16 02:32:00,28.9,23.2,29.99,SSE,162,0.0,1.0,79,0.00,,,0.00,Wunderground v.1.13,2013-02-16 07:32:00,
2013-02-16 02:38:00,29.0,23.3,29.99,SSE,161,0.0,0.0,79,0.00,,,0.00,Wunderground v.1.13,2013-02-16 07:38:00,
2013-02-16 02:44:00,29.2,23.5,29.98,SE,124,0.0,0.0,79,0.00,,,0.00,Wunderground v.1.13,2013-02-16 07:44:00,
2013-02-16 02:49:00,29.4,23.4,29.98,ESE,123,0.0,0.0,78,0.00,,,0.00,Wunderground v.1.13,2013-02-16 07:49:00,
2013-02-16 02:55:00,29.5,23.5,29.99,ESE,123,0.0,0.0,78,0.00,,,0.00,Wunderground v.1.13,2013-02-16 07:55:00,
2013-02-16 03:01:00,29.6,23.6,29.98,SE,124,0.0,0.0,78,0.00,,,0.00,Wunderground v.1.13,2013-02-16 08:01:00,
2013-02-16 03:07:00,29.7,23.4,29.98,SE,124,0.0,1.0,77,0.00,,,0.00,Wunderground v.1.13,2013-02-16 08:07:00,
2013-02-16 03:13:00,29.9,23.9,29.98,ESE,115,0.0,0.0,78,0.00,,,0.00,Wunderground v.1.13,2013-02-16 08:13:00,
2013-02-16 03:18:00,29.9,23.6,29.98,ESE,115,0.0,0.0,77,0.00,,,0.00,Wunderground v.1.13,2013-02-16 08:18:00,
2013-02-16 03:24:00,29.8,23.8,29.98,ESE,115,0.0,1.0,78,0.00,,,0.00,Wunderground v.1.13,2013-02-16 08:24:00,
2013-02-16 03:30:00,29.7,23.7,29.98,ESE,115,0.0,0.0,78,0.00,,,0.00,Wunderground v.1.13,2013-02-16 08:30:00,
2013-02-16 03:35:00,29.7,24.0,29.98,ESE,103,0.0,2.0,79,0.00,,,0.00,Wunderground v.1.13,2013-02-16 08:35:00,
2013-02-16 03:41:00,29.7,24.3,29.98,ESE,103,0.0,0.0,80,0.00,,,0.00,Wunderground v.1.13,2013-02-16 08:41:00,
2013-02-16 03:46:00,29.7,24.3,29.98,ESE,103,0.0,0.0,80,0.00,,,0.00,Wunderground v.1.13,2013-02-16 08:46:00,
2013-02-16 03:52:00,29.5,24.4,29.98,East,99,0.0,1.0,81,0.00,,,0.00,Wunderground v.1.13,2013-02-16 08:52:00,
2013-02-16 03:57:00,29.4,24.6,29.98,East,92,0.0,0.0,82,0.00,,,0.00,Wunderground v.1.13,2013-02-16 08:57:00,
2013-02-16 04:03:00,29.2,24.7,29.98,East,91,0.0,0.0,83,0.00,,,0.00,Wunderground v.1.13,2013-02-16 09:03:00,
2013-02-16 04:09:00,29.2,24.7,29.98,East,91,0.0,0.0,83,0.00,,,0.00,Wunderground v.1.13,2013-02-16 09:09:00,
2013-02-16 04:15:00,29.2,24.7,29.98,East,91,0.0,0.0,83,0.00,,,0.00,Wunderground v.1.13,2013-02-16 09:15:00,
2013-02-16 04:21:00,29.1,24.9,29.98,East,92,0.0,0.0,84,0.00,,,0.00,Wunderground v.1.13,2013-02-16 09:21:00,
2013-02-16 04:26:00,29.0,24.8,29.98,East,91,0.0,0.0,84,0.00,,,0.00,Wunderground v.1.13,2013-02-16 09:26:00,
2013-02-16 04:32:00,29.0,24.8,29.98,East,91,0.0,0.0,84,0.00,,,0.00,Wunderground v.1.13,2013-02-16 09:32:00,
2013-02-16 04:38:00,29.1,24.9,29.98,East,92,0.0,0.0,84,0.00,,,0.00,Wunderground v.1.13,2013-02-16 09:38:00,
2013-02-16 04:43:00,29.0,24.8,29.98,East,92,0.0,0.0,84,0.00,,,0.00,Wunderground v.1.13,2013-02-16 09:43:00,
2013-02-16 04:48:00,28.8,24.6,29.98,East,92,0.0,0.0,84,0.00,,,0.00,Wunderground v.1.13,2013-02-16 09:48:00,
2013-02-16 04:53:00,28.6,24.7,29.98,East,92,0.0,0.0,85,0.00,,,0.00,Wunderground v.1.13,2013-02-16 09:53:00,
2013-02-16 04:59:00,28.4,24.5,29.98,East,92,0.0,0.0,85,0.00,,,0.00,Wunderground v.1.13,2013-02-16 09:59:00,
2013-02-16 05:04:00,28.3,24.6,29.98,East,92,0.0,0.0,86,0.00,,,0.00,Wunderground v.1.13,2013-02-16 10:04:00,
2013-02-16 05:09:00,28.3,24.6,29.98,East,92,0.0,0.0,86,0.00,,,0.00,Wunderground v.1.13,2013-02-16 10:09:00,
2013-02-16 05:14:00,28.1,24.5,29.98,East,92,0.0,0.0,86,0.00,,,0.00,Wunderground v.1.13,2013-02-16 10:14:00,
2013-02-16 05:19:00,27.9,24.3,29.98,East,91,0.0,0.0,86,0.00,,,0.00,Wunderground v.1.13,2013-02-16 10:19:00,
2013-02-16 05:25:00,27.7,24.3,29.98,East,92,0.0,0.0,87,0.00,,,0.00,Wunderground v.1.13,2013-02-16 10:25:00,
2013-02-16 05:31:00,27.6,24.2,29.98,East,91,0.0,0.0,87,0.00,,,0.00,Wunderground v.1.13,2013-02-16 10:31:00,
2013-02-16 05:37:00,27.6,24.2,29.97,East,91,0.0,0.0,87,0.00,,,0.00,Wunderground v.1.13,2013-02-16 10:37:00,
2013-02-16 05:43:00,27.6,24.2,29.97,East,91,0.0,0.0,87,0.00,,,0.00,Wunderground v.1.13,2013-02-16 10:43:00,
2013-02-16 05:48:00,27.4,24.0,29.97,East,91,0.0,0.0,87,0.00,,,0.00,Wunderground v.1.13,2013-02-16 10:48:00,
2013-02-16 05:54:00,27.2,23.8,29.97,East,91,0.0,0.0,87,0.00,,,0.00,Wunderground v.1.13,2013-02-16 10:54:00,
2013-02-16 06:00:00,27.0,23.6,29.97,East,91,0.0,0.0,87,0.00,,,0.00,Wunderground v.1.13,2013-02-16 11:00:00,
2013-02-16 06:06:00,26.7,23.4,29.97,East,92,0.0,0.0,87,0.00,,,0.00,Wunderground v.1.13,2013-02-16 11:06:00,
2013-02-16 06:11:00,26.6,23.3,29.97,East,91,0.0,0.0,87,0.00,,,0.00,Wunderground v.1.13,2013-02-16 11:11:00,
2013-02-16 06:17:00,26.3,23.0,29.97,East,91,0.0,0.0,87,0.00,,,0.00,Wunderground v.1.13,2013-02-16 11:17:00,
2013-02-16 06:23:00,25.7,22.1,29.97,East,92,0.0,0.0,86,0.00,,,0.00,Wunderground v.1.13,2013-02-16 11:23:00,
2013-02-16 06:29:00,25.1,21.5,29.97,East,92,0.0,0.0,86,0.00,,,0.00,Wunderground v.1.13,2013-02-16 11:29:00,
2013-02-16 06:34:00,24.9,21.6,29.97,East,91,0.0,0.0,87,0.00,,,0.00,Wunderground v.1.13,2013-02-16 11:34:00,
2013-02-16 06:40:00,24.9,21.8,29.97,East,91,0.0,0.0,88,0.00,,,0.00,Wunderground v.1.13,2013-02-16 11:40:00,
2013-02-16 06:45:00,24.8,21.8,29.97,East,92,0.0,0.0,88,0.00,,,0.00,Wunderground v.1.13,2013-02-16 11:45:00,
2013-02-16 06:50:00,24.6,21.3,29.97,East,92,0.0,0.0,87,0.00,,,0.00,Wunderground v.1.13,2013-02-16 11:50:00,
2013-02-16 06:56:00,24.4,21.1,29.97,East,92,0.0,0.0,87,0.00,,,0.00,Wunderground v.1.13,2013-02-16 11:56:00,
2013-02-16 07:01:00,24.3,21.0,29.97,East,92,0.0,0.0,87,0.00,,,0.00,Wunderground v.1.13,2013-02-16 12:01:00,
2013-02-16 07:07:00,24.4,21.4,29.97,East,92,0.0,0.0,88,0.00,,,0.00,Wunderground v.1.13,2013-02-16 12:07:00,
2013-02-16 07:13:00,24.5,21.5,29.97,East,92,0.0,0.0,88,0.00,,,0.00,Wunderground v.1.13,2013-02-16 12:13:00,
2013-02-16 07:19:00,24.7,21.4,29.97,East,92,0.0,0.0,87,0.00,,,0.00,Wunderground v.1.13,2013-02-16 12:19:00,
2013-02-16 07:25:00,24.9,21.8,29.97,East,92,0.0,0.0,88,0.00,,,0.00,Wunderground v.1.13,2013-02-16 12:25:00,
2013-02-16 07:31:00,25.1,22.0,29.97,East,92,0.0,0.0,88,0.00,,,0.00,Wunderground v.1.13,2013-02-16 12:31:00,
2013-02-16 07:36:00,25.4,22.3,29.97,East,92,0.0,0.0,88,0.00,,,0.00,Wunderground v.1.13,2013-02-16 12:36:00,
2013-02-16 07:42:00,25.8,22.7,29.97,East,92,0.0,0.0,88,0.00,,,0.00,Wunderground v.1.13,2013-02-16 12:42:00,
2013-02-16 07:48:00,25.9,22.6,29.98,East,91,0.0,0.0,87,0.00,,,0.00,Wunderground v.1.13,2013-02-16 12:48:00,
2013-02-16 07:54:00,26.2,22.9,29.98,East,92,0.0,0.0,87,0.00,,,0.00,Wunderground v.1.13,2013-02-16 12:54:00,
2013-02-16 07:59:00,26.5,23.2,29.98,East,92,0.0,0.0,87,0.00,,,0.00,Wunderground v.1.13,2013-02-16 12:59:00,
2013-02-16 08:04:00,26.8,23.4,29.98,East,92,0.0,0.0,87,0.00,,,0.00,Wunderground v.1.13,2013-02-16 13:04:00,
2013-02-16 08:10:00,27.1,23.5,29.98,East,91,0.0,0.0,86,0.00,,,0.00,Wunderground v.1.13,2013-02-16 13:10:00,
2013-02-16 08:15:00,27.3,23.7,29.98,East,91,0.0,0.0,86,0.00,,,0.00,Wunderground v.1.13,2013-02-16 13:15:00,
2013-02-16 08:21:00,27.6,24.0,29.98,East,91,0.0,0.0,86,0.00,,,0.00,Wunderground v.1.13,2013-02-16 13:21:00,
2013-02-16 08:26:00,27.8,23.9,29.98,East,88,0.0,1.0,85,0.00,,,0.00,Wunderground v.1.13,2013-02-16 13:26:00,
2013-02-16 08:32:00,28.1,23.9,29.98,East,88,0.0,0.0,84,0.00,,,0.00,Wunderground v.1.13,2013-02-16 13:32:00,
2013-02-16 08:38:00,28.5,23.7,29.98,NNW,342,0.0,1.0,82,0.00,,,0.00,Wunderground v.1.13,2013-02-16 13:38:00,
2013-02-16 08:44:00,28.8,23.1,29.98,NNW,342,0.0,1.0,79,0.00,,,0.00,Wunderground v.1.13,2013-02-16 13:44:00,
2013-02-16 08:50:00,28.9,22.6,29.98,NNW,340,0.0,2.0,77,0.00,,,0.00,Wunderground v.1.13,2013-02-16 13:50:00,
2013-02-16 08:55:00,29.0,22.1,29.98,NNW,338,1.0,3.0,75,0.00,,,0.00,Wunderground v.1.13,2013-02-16 13:55:00,
2013-02-16 09:00:00,29.0,21.4,29.98,NNW,330,1.0,2.0,73,0.00,,,0.00,Wunderground v.1.13,2013-02-16 14:00:00,
2013-02-16 09:06:00,29.1,21.2,29.98,NNW,331,1.0,1.0,72,0.00,,,0.00,Wunderground v.1.13,2013-02-16 14:06:00,
2013-02-16 09:11:00,29.1,20.9,29.98,NE,40,1.0,1.0,71,0.00,,,0.00,Wunderground v.1.13,2013-02-16 14:11:00,
2013-02-16 09:17:00,29.2,21.3,29.98,North,11,1.0,1.0,72,0.00,,,0.00,Wunderground v.1.13,2013-02-16 14:17:00,
2013-02-16 09:23:00,29.3,20.7,29.97,NNW,334,1.0,3.0,70,0.00,,,0.00,Wunderground v.1.13,2013-02-16 14:23:00,
2013-02-16 09:28:00,29.3,20.4,29.98,NNE,15,2.0,3.0,69,0.00,,,0.00,Wunderground v.1.13,2013-02-16 14:28:00,
2013-02-16 09:34:00,29.6,20.7,29.98,North,5,1.0,4.0,69,0.00,,,0.00,Wunderground v.1.13,2013-02-16 14:34:00,
2013-02-16 09:40:00,29.9,21.0,29.97,North,5,1.0,2.0,69,0.00,,,0.00,Wunderground v.1.13,2013-02-16 14:40:00,
2013-02-16 09:46:00,29.9,20.3,29.98,East,95,0.0,0.0,67,0.00,,,0.00,Wunderground v.1.13,2013-02-16 14:46:00,
2013-02-16 09:51:00,29.8,20.2,29.98,NE,46,1.0,2.0,67,0.00,,,0.00,Wunderground v.1.13,2013-02-16 14:51:00,
2013-02-16 09:56:00,29.8,20.2,29.98,NE,44,1.0,1.0,67,0.00,,,0.00,Wunderground v.1.13,2013-02-16 14:56:00,
2013-02-16 10:02:00,29.9,19.9,29.98,NNW,327,1.0,2.0,66,0.00,,,0.00,Wunderground v.1.13,2013-02-16 15:02:00,
2013-02-16 10:08:00,30.1,20.1,29.98,NW,307,1.0,2.0,66,0.00,,,0.00,Wunderground v.1.13,2013-02-16 15:08:00,
2013-02-16 10:13:00,30.2,19.5,29.98,SE,142,1.0,4.0,64,0.00,,,0.00,Wunderground v.1.13,2013-02-16 15:13:00,
2013-02-16 10:19:00,30.7,20.3,29.97,ENE,57,1.0,1.0,65,0.00,,,0.00,Wunderground v.1.13,2013-02-16 15:19:00,
2013-02-16 10:24:00,31.1,20.3,29.97,NNW,339,1.0,5.0,64,0.00,,,0.00,Wunderground v.1.13,2013-02-16 15:24:00,
2013-02-16 10:29:00,31.0,19.9,29.97,SSW,194,1.0,2.0,63,0.00,,,0.00,Wunderground v.1.13,2013-02-16 15:29:00,
2013-02-16 10:35:00,31.1,20.0,29.97,NNE,17,2.0,6.0,63,0.00,,,0.00,Wunderground v.1.13,2013-02-16 15:35:00,
2013-02-16 10:41:00,31.0,19.5,29.97,WSW,254,2.0,2.0,62,0.00,,,0.00,Wunderground v.1.13,2013-02-16 15:41:00,
2013-02-16 10:47:00,31.5,20.0,29.97,WNW,296,1.0,1.0,62,0.00,,,0.00,Wunderground v.1.13,2013-02-16 15:47:00,
2013-02-16 10:53:00,31.9,19.2,29.97,SW,214,1.0,2.0,59,0.00,,,0.00,Wunderground v.1.13,2013-02-16 15:53:00,
2013-02-16 10:59:00,31.5,20.0,29.97,SW,226,1.0,3.0,62,0.00,,,0.00,Wunderground v.1.13,2013-02-16 15:59:00,
2013-02-16 11:05:00,31.5,20.0,29.97,NNW,346,1.0,1.0,62,0.00,,,0.00,Wunderground v.1.13,2013-02-16 16:05:00,
2013-02-16 11:11:00,31.5,20.0,29.96,SSE,163,1.0,1.0,62,0.00,,,0.00,Wunderground v.1.13,2013-02-16 16:11:00,
2013-02-16 11:18:00,31.7,19.4,29.96,WNW,294,1.0,2.0,60,0.00,,,0.00,Wunderground v.1.13,2013-02-16 16:18:00,
2013-02-16 11:23:00,31.9,19.6,29.97,SSE,161,2.0,3.0,60,0.00,,,0.00,Wunderground v.1.13,2013-02-16 16:23:00,
2013-02-16 11:28:00,32.9,20.1,29.97,WNW,291,2.0,4.0,59,0.00,,,0.00,Wunderground v.1.13,2013-02-16 16:28:00,
2013-02-16 11:33:00,33.0,20.2,29.96,North,360,2.0,3.0,59,0.00,,,0.00,Wunderground v.1.13,2013-02-16 16:33:00,
2013-02-16 11:38:00,33.0,19.4,29.96,ENE,61,2.0,5.0,57,0.00,,,0.00,Wunderground v.1.13,2013-02-16 16:38:00,
2013-02-16 11:44:00,32.6,19.8,29.96,ENE,74,2.0,4.0,59,0.00,,,0.00,Wunderground v.1.13,2013-02-16 16:44:00,
2013-02-16 11:50:00,32.6,19.4,29.95,NNW,335,2.0,2.0,58,0.00,,,0.00,Wunderground v.1.13,2013-02-16 16:50:00,
2013-02-16 11:55:00,32.5,19.7,29.95,North,10,2.0,2.0,59,0.00,,,0.00,Wunderground v.1.13,2013-02-16 16:55:00,
2013-02-16 12:01:00,32.8,19.2,29.94,West,267,1.0,2.0,57,0.00,,,0.00,Wunderground v.1.13,2013-02-16 17:01:00,
2013-02-16 12:06:00,33.3,19.7,29.94,West,259,1.0,7.0,57,0.00,,,0.00,Wunderground v.1.13,2013-02-16 17:06:00,
2013-02-16 12:12:00,32.5,19.3,29.94,North,360,2.0,4.0,58,0.00,,,0.00,Wunderground v.1.13,2013-02-16 17:12:00,
2013-02-16 12:18:00,32.0,18.9,29.94,WNW,298,2.0,3.0,58,0.00,,,0.00,Wunderground v.1.13,2013-02-16 17:18:00,
2013-02-16 12:23:00,31.8,18.3,29.94,SSW,205,1.0,2.0,57,0.00,,,0.00,Wunderground v.1.13,2013-02-16 17:23:00,
2013-02-16 12:28:00,31.6,18.5,29.94,SSW,198,2.0,2.0,58,0.00,,,0.00,Wunderground v.1.13,2013-02-16 17:28:00,
2013-02-16 12:33:00,32.1,18.6,29.94,WSW,255,2.0,4.0,57,0.00,,,0.00,Wunderground v.1.13,2013-02-16 17:33:00,
2013-02-16 12:39:00,32.1,20.2,29.94,NNE,19,2.0,2.0,61,0.00,,,0.00,Wunderground v.1.13,2013-02-16 17:39:00,
2013-02-16 12:44:00,31.9,18.0,29.94,NNE,30,1.0,2.0,56,0.00,,,0.00,Wunderground v.1.13,2013-02-16 17:44:00,
2013-02-16 12:49:00,31.8,18.7,29.94,WNW,290,1.0,4.0,58,0.00,,,0.00,Wunderground v.1.13,2013-02-16 17:49:00,
2013-02-16 12:55:00,31.7,18.6,29.94,West,260,2.0,3.0,58,0.00,,,0.00,Wunderground v.1.13,2013-02-16 17:55:00,
2013-02-16 13:00:00,31.5,18.0,29.94,NE,48,1.0,1.0,57,0.00,,,0.00,Wunderground v.1.13,2013-02-16 18:00:00,
2013-02-16 13:06:00,31.5,17.6,29.94,East,79,1.0,2.0,56,0.00,,,0.00,Wunderground v.1.13,2013-02-16 18:06:00,
2013-02-16 13:11:00,31.5,17.6,29.94,NNE,32,1.0,1.0,56,0.00,,,0.00,Wunderground v.1.13,2013-02-16 18:11:00,
2013-02-16 13:17:00,31.6,17.7,29.93,WSW,256,1.0,2.0,56,0.00,,,0.00,Wunderground v.1.13,2013-02-16 18:17:00,
2013-02-16 13:23:00,31.9,18.4,29.93,North,9,2.0,2.0,57,0.00,,,0.00,Wunderground v.1.13,2013-02-16 18:23:00,
2013-02-16 13:29:00,32.0,17.6,29.93,NE,55,1.0,2.0,55,0.00,,,0.00,Wunderground v.1.13,2013-02-16 18:29:00,
2013-02-16 13:35:00,32.1,17.7,29.93,ENE,74,1.0,1.0,55,0.00,,,0.00,Wunderground v.1.13,2013-02-16 18:35:00,
2013-02-16 13:41:00,31.7,17.8,29.93,NE,48,2.0,2.0,56,0.00,,,0.00,Wunderground v.1.13,2013-02-16 18:41:00,
2013-02-16 13:47:00,31.9,17.5,29.93,NE,40,2.0,2.0,55,0.00,,,0.00,Wunderground v.1.13,2013-02-16 18:47:00,
2013-02-16 13:52:00,32.3,17.5,29.93,North,355,2.0,2.0,54,0.00,,,0.00,Wunderground v.1.13,2013-02-16 18:52:00,
2013-02-16 13:58:00,32.5,17.7,29.93,SSW,195,2.0,3.0,54,0.00,,,0.00,Wunderground v.1.13,2013-02-16 18:58:00,
2013-02-16 14:03:00,31.9,16.7,29.93,NNW,336,3.0,4.0,53,0.00,,,0.00,Wunderground v.1.13,2013-02-16 19:03:00,
2013-02-16 14:08:00,31.7,17.4,29.93,North,5,3.0,3.0,55,0.00,,,0.00,Wunderground v.1.13,2013-02-16 19:08:00,
2013-02-16 14:14:00,31.8,17.0,29.93,SSE,147,1.0,2.0,54,0.00,,,0.00,Wunderground v.1.13,2013-02-16 19:14:00,
2013-02-16 14:20:00,32.1,16.9,29.93,NNW,327,1.0,1.0,53,0.00,,,0.00,Wunderground v.1.13,2013-02-16 19:20:00,
2013-02-16 14:25:00,32.3,16.2,29.93,West,277,2.0,2.0,51,0.00,,,0.00,Wunderground v.1.13,2013-02-16 19:25:00,
2013-02-16 14:31:00,32.6,16.4,29.93,NE,40,2.0,3.0,51,0.00,,,0.00,Wunderground v.1.13,2013-02-16 19:31:00,
2013-02-16 14:37:00,32.4,16.7,29.93,SSW,196,2.0,4.0,52,0.00,,,0.00,Wunderground v.1.13,2013-02-16 19:37:00,
2013-02-16 14:42:00,32.9,17.2,29.92,North,355,2.0,2.0,52,0.00,,,0.00,Wunderground v.1.13,2013-02-16 19:42:00,
2013-02-16 14:48:00,33.9,17.7,29.93,NNE,24,2.0,4.0,51,0.00,,,0.00,Wunderground v.1.13,2013-02-16 19:48:00,
2013-02-16 14:54:00,34.0,17.7,29.93,WNW,292,2.0,6.0,51,0.00,,,0.00,Wunderground v.1.13,2013-02-16 19:54:00,
2013-02-16 15:00:00,33.2,17.0,29.93,ENE,60,2.0,2.0,51,0.00,,,0.00,Wunderground v.1.13,2013-02-16 20:00:00,
2013-02-16 15:06:00,32.3,16.6,29.93,North,355,2.0,2.0,52,0.00,,,0.00,Wunderground v.1.13,2013-02-16 20:06:00,
2013-02-16 15:11:00,31.9,16.7,29.93,North,360,1.0,1.0,53,0.00,,,0.00,Wunderground v.1.13,2013-02-16 20:11:00,
2013-02-16 15:16:00,31.8,17.0,29.93,NNW,329,1.0,1.0,54,0.00,,,0.00,Wunderground v.1.13,2013-02-16 20:16:00,
2013-02-16 15:22:00,31.9,16.2,29.93,NW,311,2.0,2.0,52,0.00,,,0.00,Wunderground v.1.13,2013-02-16 20:22:00,
2013-02-16 15:28:00,31.2,16.0,29.93,East,98,2.0,4.0,53,0.00,,,0.00,Wunderground v.1.13,2013-02-16 20:28:00,
2013-02-16 15:34:00,30.5,15.8,29.93,NNW,330,3.0,9.0,54,0.00,,,0.00,Wunderground v.1.13,2013-02-16 20:34:00,
2013-02-16 15:39:00,30.3,16.5,29.93,NNE,32,2.0,3.0,56,0.00,,,0.00,Wunderground v.1.13,2013-02-16 20:39:00,
2013-02-16 15:45:00,30.3,15.6,29.93,ESE,102,1.0,2.0,54,0.00,,,0.00,Wunderground v.1.13,2013-02-16 20:45:00,
2013-02-16 15:50:00,30.3,15.6,29.93,ESE,103,1.0,1.0,54,0.00,,,0.00,Wunderground v.1.13,2013-02-16 20:50:00,
2013-02-16 15:56:00,30.1,15.9,29.93,NNE,14,1.0,1.0,55,0.00,,,0.00,Wunderground v.1.13,2013-02-16 20:56:00,
2013-02-16 16:02:00,29.7,16.3,29.93,NW,323,2.0,4.0,57,0.00,,,0.00,Wunderground v.1.13,2013-02-16 21:02:00,
2013-02-16 16:07:00,29.4,16.0,29.93,NE,42,3.0,3.0,57,0.00,,,0.00,Wunderground v.1.13,2013-02-16 21:07:00,
2013-02-16 16:13:00,29.3,16.3,29.93,NNE,30,2.0,3.0,58,0.00,,,0.00,Wunderground v.1.13,2013-02-16 21:13:00,
2013-02-16 16:19:00,29.2,15.8,29.93,NW,307,1.0,5.0,57,0.00,,,0.00,Wunderground v.1.13,2013-02-16 21:19:00,
2013-02-16 16:24:00,29.1,16.5,29.93,NW,319,2.0,2.0,59,0.00,,,0.00,Wunderground v.1.13,2013-02-16 21:24:00,
2013-02-16 16:30:00,28.9,16.0,29.93,North,5,1.0,2.0,58,0.00,,,0.00,Wunderground v.1.13,2013-02-16 21:30:00,
2013-02-16 16:36:00,28.8,15.9,29.92,ENE,59,1.0,1.0,58,0.00,,,0.00,Wunderground v.1.13,2013-02-16 21:36:00,
2013-02-16 16:41:00,28.5,15.6,29.93,NW,311,2.0,4.0,58,0.00,,,0.00,Wunderground v.1.13,2013-02-16 21:41:00,
2013-02-16 16:47:00,28.2,15.3,29.93,NNW,344,2.0,2.0,58,0.00,,,0.00,Wunderground v.1.13,2013-02-16 21:47:00,
2013-02-16 16:53:00,28.0,14.3,29.93,NW,323,2.0,2.0,56,0.00,,,0.00,Wunderground v.1.13,2013-02-16 21:53:00,
2013-02-16 16:58:00,27.8,14.5,29.93,NW,318,2.0,3.0,57,0.00,,,0.00,Wunderground v.1.13,2013-02-16 21:58:00,
2013-02-16 17:03:00,27.7,14.8,29.93,NNE,28,1.0,2.0,58,0.00,,,0.00,Wunderground v.1.13,2013-02-16 22:03:00,
2013-02-16 17:08:00,27.6,15.1,29.93,NE,37,1.0,1.0,59,0.00,,,0.00,Wunderground v.1.13,2013-02-16 22:08:00,
2013-02-16 17:13:00,27.4,14.9,29.94,NNW,338,1.0,3.0,59,0.00,,,0.00,Wunderground v.1.13,2013-02-16 22:13:00,
2013-02-16 17:19:00,27.3,14.5,29.94,NNW,336,2.0,5.0,58,0.00,,,0.00,Wunderground v.1.13,2013-02-16 22:19:00,
2013-02-16 17:24:00,27.2,14.4,29.94,North,5,2.0,4.0,58,0.00,,,0.00,Wunderground v.1.13,2013-02-16 22:24:00,
2013-02-16 17:30:00,27.2,13.6,29.93,North,350,3.0,4.0,56,0.00,,,0.00,Wunderground v.1.13,2013-02-16 22:30:00,
2013-02-16 17:36:00,27.1,13.9,29.93,NNE,25,2.0,2.0,57,0.00,,,0.00,Wunderground v.1.13,2013-02-16 22:36:00,
2013-02-16 17:41:00,27.0,14.2,29.93,NE,45,2.0,2.0,58,0.00,,,0.00,Wunderground v.1.13,2013-02-16 22:41:00,
2013-02-16 17:47:00,26.8,13.6,29.94,NNE,20,2.0,2.0,57,0.00,,,0.00,Wunderground v.1.13,2013-02-16 22:47:00,
2013-02-16 17:53:00,26.7,13.1,29.94,NW,314,2.0,8.0,56,0.00,,,0.00,Wunderground v.1.13,2013-02-16 22:53:00,
2013-02-16 17:59:00,26.5,12.5,29.95,NNW,342,2.0,4.0,55,0.00,,,0.00,Wunderground v.1.13,2013-02-16 22:59:00,
2013-02-16 18:04:00,26.3,11.9,29.95,NNW,345,2.0,8.0,54,0.00,,,0.00,Wunderground v.1.13,2013-02-16 23:04:00,
2013-02-16 18:09:00,26.1,11.7,29.95,NNE,25,2.0,3.0,54,0.00,,,0.00,Wunderground v.1.13,2013-02-16 23:09:00,
2013-02-16 18:15:00,25.9,11.9,29.95,NE,47,1.0,1.0,55,0.00,,,0.00,Wunderground v.1.13,2013-02-16 23:15:00,
2013-02-16 18:21:00,25.7,11.7,29.95,East,98,1.0,3.0,55,0.00,,,0.00,Wunderground v.1.13,2013-02-16 23:21:00,
2013-02-16 18:26:00,25.6,12.1,29.95,NE,53,2.0,2.0,56,0.00,,,0.00,Wunderground v.1.13,2013-02-16 23:26:00,
2013-02-16 18:32:00,25.5,11.1,29.95,ENE,76,2.0,3.0,54,0.00,,,0.00,Wunderground v.1.13,2013-02-16 23:32:00,
2013-02-16 18:37:00,25.3,10.1,29.95,NNW,340,3.0,7.0,52,0.00,,,0.00,Wunderground v.1.13,2013-02-16 23:37:00,
2013-02-16 18:43:00,25.2,10.4,29.95,NNW,347,3.0,4.0,53,0.00,,,0.00,Wunderground v.1.13,2013-02-16 23:43:00,
2013-02-16 18:49:00,25.1,9.9,29.95,SSE,156,3.0,5.0,52,0.00,,,0.00,Wunderground v.1.13,2013-02-16 23:49:00,
2013-02-16 18:54:00,24.9,9.7,29.96,NNW,329,3.0,4.0,52,0.00,,,0.00,Wunderground v.1.13,2013-02-16 23:54:00,
2013-02-16 19:00:00,24.7,9.5,29.96,East,88,3.0,3.0,52,0.00,,,0.00,Wunderground v.1.13,2013-02-17 00:00:00,
2013-02-16 19:06:00,24.6,9.0,29.95,North,5,3.0,3.0,51,0.00,,,0.00,Wunderground v.1.13,2013-02-17 00:06:00,
2013-02-16 19:11:00,24.5,8.9,29.95,NNE,19,3.0,3.0,51,0.00,,,0.00,Wunderground v.1.13,2013-02-17 00:11:00,
2013-02-16 19:17:00,24.3,8.7,29.95,North,349,2.0,8.0,51,0.00,,,0.00,Wunderground v.1.13,2013-02-17 00:17:00,
2013-02-16 19:23:00,24.2,8.2,29.95,NNE,32,2.0,3.0,50,0.00,,,0.00,Wunderground v.1.13,2013-02-17 00:23:00,
2013-02-16 19:29:00,24.0,8.5,29.94,NW,313,3.0,3.0,51,0.00,,,0.00,Wunderground v.1.13,2013-02-17 00:29:00,
2013-02-16 19:35:00,23.8,7.8,29.94,NNW,338,3.0,4.0,50,0.00,,,0.00,Wunderground v.1.13,2013-02-17 00:35:00,
2013-02-16 19:41:00,23.6,7.7,29.94,NW,319,3.0,3.0,50,0.00,,,0.00,Wunderground v.1.13,2013-02-17 00:41:00,
2013-02-16 19:47:00,23.5,7.6,29.94,NE,52,3.0,4.0,50,0.00,,,0.00,Wunderground v.1.13,2013-02-17 00:47:00,
2013-02-16 19:53:00,23.4,7.0,29.94,NNW,348,2.0,6.0,49,0.00,,,0.00,Wunderground v.1.13,2013-02-17 00:53:00,
2013-02-16 19:58:00,23.3,6.9,29.94,NE,45,2.0,4.0,49,0.00,,,0.00,Wunderground v.1.13,2013-02-17 00:58:00,
2013-02-16 20:04:00,23.3,6.9,29.94,North,5,2.0,6.0,49,0.00,,,0.00,Wunderground v.1.13,2013-02-17 01:04:00,
2013-02-16 20:09:00,23.2,7.3,29.94,NNW,348,2.0,5.0,50,0.00,,,0.00,Wunderground v.1.13,2013-02-17 01:09:00,
2013-02-16 20:15:00,23.1,7.2,29.94,NNW,340,3.0,3.0,50,0.00,,,0.00,Wunderground v.1.13,2013-02-17 01:15:00,
2013-02-16 20:20:00,22.9,7.0,29.94,NW,318,3.0,3.0,50,0.00,,,0.00,Wunderground v.1.13,2013-02-17 01:20:00,
2013-02-16 20:26:00,22.8,6.9,29.94,North,360,2.0,2.0,50,0.00,,,0.00,Wunderground v.1.13,2013-02-17 01:26:00,
2013-02-16 20:32:00,22.8,6.9,29.93,NW,323,2.0,3.0,50,0.00,,,0.00,Wunderground v.1.13,2013-02-17 01:32:00,
2013-02-16 20:38:00,22.6,6.3,29.94,West,278,2.0,2.0,49,0.00,,,0.00,Wunderground v.1.13,2013-02-17 01:38:00,
2013-02-16 20:43:00,22.6,5.8,29.93,NNW,341,2.0,4.0,48,0.00,,,0.00,Wunderground v.1.13,2013-02-17 01:43:00,
2013-02-16 20:49:00,22.5,6.2,29.93,NNW,344,2.0,2.0,49,0.00,,,0.00,Wunderground v.1.13,2013-02-17 01:49:00,
2013-02-16 20:55:00,22.4,5.6,29.93,NW,309,2.0,3.0,48,0.00,,,0.00,Wunderground v.1.13,2013-02-17 01:55:00,
2013-02-16 21:00:00,22.3,6.0,29.93,ENE,72,3.0,4.0,49,0.00,,,0.00,Wunderground v.1.13,2013-02-17 02:00:00,
2013-02-16 21:06:00,22.2,5.5,29.93,North,10,3.0,3.0,48,0.00,,,0.00,Wunderground v.1.13,2013-02-17 02:06:00,
2013-02-16 21:11:00,22.2,5.9,29.93,North,355,2.0,4.0,49,0.00,,,0.00,Wunderground v.1.13,2013-02-17 02:11:00,
2013-02-16 21:16:00,22.0,5.3,29.93,North,351,2.0,4.0,48,0.00,,,0.00,Wunderground v.1.13,2013-02-17 02:16:00,
2013-02-16 21:22:00,21.9,4.7,29.93,WNW,285,2.0,2.0,47,0.00,,,0.00,Wunderground v.1.13,2013-02-17 02:22:00,
2013-02-16 21:28:00,21.8,5.1,29.93,ENE,67,2.0,2.0,48,0.00,,,0.00,Wunderground v.1.13,2013-02-17 02:28:00,
2013-02-16 21:33:00,21.7,5.5,29.93,East,91,2.0,3.0,49,0.00,,,0.00,Wunderground v.1.13,2013-02-17 02:33:00,
2013-02-16 21:38:00,21.6,5.4,29.93,SSW,207,2.0,5.0,49,0.00,,,0.00,Wunderground v.1.13,2013-02-17 02:38:00,
2013-02-16 21:44:00,21.5,5.3,29.93,NNW,340,2.0,4.0,49,0.00,,,0.00,Wunderground v.1.13,2013-02-17 02:44:00,
2013-02-16 21:50:00,21.5,5.7,29.91,NE,55,2.0,5.0,50,0.00,,,0.00,Wunderground v.1.13,2013-02-17 02:50:00,
2013-02-16 21:56:00,21.3,5.1,29.92,West,265,2.0,4.0,49,0.00,,,0.00,Wunderground v.1.13,2013-02-17 02:56:00,
2013-02-16 22:02:00,21.3,5.1,29.92,WNW,300,2.0,2.0,49,0.00,,,0.00,Wunderground v.1.13,2013-02-17 03:02:00,
2013-02-16 22:07:00,21.2,5.0,29.92,NE,48,2.0,2.0,49,0.00,,,0.00,Wunderground v.1.13,2013-02-17 03:07:00,
2013-02-16 22:13:00,21.1,4.4,29.92,North,360,2.0,3.0,48,0.00,,,0.00,Wunderground v.1.13,2013-02-17 03:13:00,
2013-02-16 22:19:00,21.0,4.8,29.91,NNW,333,2.0,6.0,49,0.00,,,0.00,Wunderground v.1.13,2013-02-17 03:19:00,
2013-02-16 22:24:00,20.9,5.2,29.91,NNW,335,2.0,3.0,50,0.00,,,0.00,Wunderground v.1.13,2013-02-17 03:24:00,
2013-02-16 22:30:00,20.8,4.6,29.91,NW,311,1.0,5.0,49,0.00,,,0.00,Wunderground v.1.13,2013-02-17 03:30:00,
2013-02-16 22:36:00,20.7,5.4,29.91,West,275,1.0,1.0,51,0.00,,,0.00,Wunderground v.1.13,2013-02-17 03:36:00,
2013-02-16 22:41:00,20.6,4.9,29.91,NNE,24,1.0,1.0,50,0.00,,,0.00,Wunderground v.1.13,2013-02-17 03:41:00,
2013-02-16 22:47:00,20.5,5.2,29.91,NNE,28,1.0,1.0,51,0.00,,,0.00,Wunderground v.1.13,2013-02-17 03:47:00,
2013-02-16 22:53:00,20.3,5.0,29.90,ENE,71,1.0,3.0,51,0.00,,,0.00,Wunderground v.1.13,2013-02-17 03:53:00,
2013-02-16 22:58:00,20.3,5.0,29.90,North,355,1.0,3.0,51,0.00,,,0.00,Wunderground v.1.13,2013-02-17 03:58:00,
2013-02-16 23:03:00,20.2,5.4,29.90,North,10,1.0,1.0,52,0.00,,,0.00,Wunderground v.1.13,2013-02-17 04:03:00,
2013-02-16 23:09:00,20.2,5.8,29.89,North,10,1.0,1.0,53,0.00,,,0.00,Wunderground v.1.13,2013-02-17 04:09:00,
2013-02-16 23:14:00,20.0,5.6,29.89,North,5,0.0,2.0,53,0.00,,,0.00,Wunderground v.1.13,2013-02-17 04:14:00,
2013-02-16 23:20:00,19.8,5.0,29.89,East,101,1.0,1.0,52,0.00,,,0.00,Wunderground v.1.13,2013-02-17 04:20:00,
2013-02-16 23:26:00,19.7,5.3,29.89,WNW,285,1.0,1.0,53,0.00,,,0.00,Wunderground v.1.13,2013-02-17 04:26:00,
2013-02-16 23:32:00,19.7,5.3,29.88,NW,319,1.0,1.0,53,0.00,,,0.00,Wunderground v.1.13,2013-02-17 04:32:00,
2013-02-16 23:38:00,19.7,5.7,29.88,NE,38,1.0,1.0,54,0.00,,,0.00,Wunderground v.1.13,2013-02-17 04:38:00,
2013-02-16 23:44:00,19.4,5.0,29.88,West,279,0.0,2.0,53,0.00,,,0.00,Wunderground v.1.13,2013-02-17 04:44:00,
2013-02-16 23:49:00,19.1,5.2,29.88,West,281,0.0,1.0,54,0.00,,,0.00,Wunderground v.1.13,2013-02-17 04:49:00,
2013-02-16 23:55:00,19.0,5.5,29.87,West,277,0.0,0.0,55,0.00,,,0.00,Wunderground v.1.13,2013-02-17 04:55:00,